Вернуться в каталог

FENGYUN 1C DEB

АктивенLEO
NORAD 32455·DEBRIS·🇨🇳 China

Запущен May 10, 1999 с Taiyuan Satellite Launch Center

Loading…

Ближайшие Пролёты (ближайшие 24 часа)

TLE

СвежийSource: Space-Track

Эпоха: Sep 13, 2026, 13:41 UTC

1 32455U 99025DBT 26256.57020455  .00001430  00000-0  90375-3 0  9998
2 32455 101.7231 166.8586 0230810 184.9300 174.9576 13.94152712682432

Отслеживайте FENGYUN 1C DEB в реальном времени с AllMySat

Download on the App Store